owner,sensor,date,latitude,longitude,sea_surface_height_above_sea_level,qcFlag 
TCOON,ioos:station:TCOON:518:1,2017-06-01T00:18:00Z,29.5150,-94.5133,1.526,1111122 
TCOON,ioos:station:TCOON:518:1,2017-06-01T01:18:00Z,29.5150,-94.5133,1.474,1111122 
TCOON,ioos:station:TCOON:518:1,2017-06-01T02:18:00Z,29.5150,-94.5133,1.466,1111122 
TCOON,ioos:station:TCOON:518:1,2017-06-01T03:18:00Z,29.5150,-94.5133,1.437,1111122 
TCOON,ioos:station:TCOON:518:1,2017-06-01T04:18:00Z,29.5150,-94.5133,1.459,1111122 
TCOON,ioos:station:TCOON:518:1,2017-06-01T05:18:00Z,29.5150,-94.5133,1.458,1111122 
TCOON,ioos:station:TCOON:518:1,2017-06-01T06:18:00Z,29.5150,-94.5133,1.405,1111122 
TCOON,ioos:station:TCOON:518:1,2017-06-01T07:18:00Z,29.5150,-94.5133,1.327,1111122 
TCOON,ioos:station:TCOON:518:1,2017-06-01T08:18:00Z,29.5150,-94.5133,1.296,1111122 
TCOON,ioos:station:TCOON:518:1,2017-06-01T09:18:00Z,29.5150,-94.5133,1.243,1111122 
TCOON,ioos:station:TCOON:518:1,2017-06-01T10:18:00Z,29.5150,-94.5133,1.217,1111122 
TCOON,ioos:station:TCOON:518:1,2017-06-01T11:18:00Z,29.5150,-94.5133,1.171,1111122 
TCOON,ioos:station:TCOON:518:1,2017-06-01T12:18:00Z,29.5150,-94.5133,1.113,1111122 
TCOON,ioos:station:TCOON:518:1,2017-06-01T13:18:00Z,29.5150,-94.5133,1.116,1111122 
TCOON,ioos:station:TCOON:518:1,2017-06-01T14:18:00Z,29.5150,-94.5133,1.122,1111122 
TCOON,ioos:station:TCOON:518:1,2017-06-01T15:18:00Z,29.5150,-94.5133,1.149,1111122 
TCOON,ioos:station:TCOON:518:1,2017-06-01T16:18:00Z,29.5150,-94.5133,1.214,1111122 
TCOON,ioos:station:TCOON:518:1,2017-06-01T17:18:00Z,29.5150,-94.5133,1.305,1111122 
TCOON,ioos:station:TCOON:518:1,2017-06-01T18:18:00Z,29.5150,-94.5133,1.348,1111122 
TCOON,ioos:station:TCOON:518:1,2017-06-01T19:18:00Z,29.5150,-94.5133,1.379,1111122 
TCOON,ioos:station:TCOON:518:1,2017-06-01T20:18:00Z,29.5150,-94.5133,1.419,1111122 
TCOON,ioos:station:TCOON:518:1,2017-06-01T21:18:00Z,29.5150,-94.5133,1.46,1111122 
TCOON,ioos:station:TCOON:518:1,2017-06-01T22:18:00Z,29.5150,-94.5133,1.516,1111122 
TCOON,ioos:station:TCOON:518:1,2017-06-01T23:18:00Z,29.5150,-94.5133,1.51,1111122 
TCOON,ioos:station:TCOON:518:1,2017-06-02T00:18:00Z,29.5150,-94.5133,1.53,1111122 
TCOON,ioos:station:TCOON:518:1,2017-06-02T01:18:00Z,29.5150,-94.5133,1.48,1111122 
TCOON,ioos:station:TCOON:518:1,2017-06-02T02:18:00Z,29.5150,-94.5133,1.413,1111122 
TCOON,ioos:station:TCOON:518:1,2017-06-02T03:18:00Z,29.5150,-94.5133,1.384,1111122 
TCOON,ioos:station:TCOON:518:1,2017-06-02T04:18:00Z,29.5150,-94.5133,1.371,1111122 
TCOON,ioos:station:TCOON:518:1,2017-06-02T05:18:00Z,29.5150,-94.5133,1.409,1111122 
TCOON,ioos:station:TCOON:518:1,2017-06-02T06:18:00Z,29.5150,-94.5133,1.461,1111122 
TCOON,ioos:station:TCOON:518:1,2017-06-02T07:18:00Z,29.5150,-94.5133,1.489,1111122 
TCOON,ioos:station:TCOON:518:1,2017-06-02T08:18:00Z,29.5150,-94.5133,1.483,1111122 
TCOON,ioos:station:TCOON:518:1,2017-06-02T09:18:00Z,29.5150,-94.5133,1.439,1111122 
TCOON,ioos:station:TCOON:518:1,2017-06-02T10:18:00Z,29.5150,-94.5133,1.421,1111122 
TCOON,ioos:station:TCOON:518:1,2017-06-02T11:18:00Z,29.5150,-94.5133,1.375,1111122 
TCOON,ioos:station:TCOON:518:1,2017-06-02T12:18:00Z,29.5150,-94.5133,1.35,1111122 
TCOON,ioos:station:TCOON:518:1,2017-06-02T13:18:00Z,29.5150,-94.5133,1.388,1111122 
TCOON,ioos:station:TCOON:518:1,2017-06-02T14:18:00Z,29.5150,-94.5133,1.4,1111122 
TCOON,ioos:station:TCOON:518:1,2017-06-02T15:18:00Z,29.5150,-94.5133,1.4,1111122 
TCOON,ioos:station:TCOON:518:1,2017-06-02T16:18:00Z,29.5150,-94.5133,1.412,1111122 
TCOON,ioos:station:TCOON:518:1,2017-06-02T17:18:00Z,29.5150,-94.5133,1.44,1111122 
TCOON,ioos:station:TCOON:518:1,2017-06-02T18:18:00Z,29.5150,-94.5133,1.493,1111122 
TCOON,ioos:station:TCOON:518:1,2017-06-02T19:18:00Z,29.5150,-94.5133,1.524,1111122 
TCOON,ioos:station:TCOON:518:1,2017-06-02T20:18:00Z,29.5150,-94.5133,1.54,1111122 
TCOON,ioos:station:TCOON:518:1,2017-06-02T21:18:00Z,29.5150,-94.5133,1.552,1111122 
TCOON,ioos:station:TCOON:518:1,2017-06-02T22:18:00Z,29.5150,-94.5133,1.587,1111122 
TCOON,ioos:station:TCOON:518:1,2017-06-02T23:18:00Z,29.5150,-94.5133,1.602,1111122 
TCOON,ioos:station:TCOON:518:1,2017-06-03T00:18:00Z,29.5150,-94.5133,1.522,1111122 
TCOON,ioos:station:TCOON:518:1,2017-06-03T01:18:00Z,29.5150,-94.5133,1.45,1111122 
TCOON,ioos:station:TCOON:518:1,2017-06-03T02:18:00Z,29.5150,-94.5133,1.422,1111122 
TCOON,ioos:station:TCOON:518:1,2017-06-03T03:12:00Z,29.5150,-94.5133,1.417,1111122 
TCOON,ioos:station:TCOON:518:1,2017-06-03T04:18:00Z,29.5150,-94.5133,1.398,1111122 
TCOON,ioos:station:TCOON:518:1,2017-06-03T05:18:00Z,29.5150,-94.5133,1.428,1111122 
TCOON,ioos:station:TCOON:518:1,2017-06-03T06:18:00Z,29.5150,-94.5133,1.421,1111122 
TCOON,ioos:station:TCOON:518:1,2017-06-03T07:18:00Z,29.5150,-94.5133,1.494,1111122 
TCOON,ioos:station:TCOON:518:1,2017-06-03T08:18:00Z,29.5150,-94.5133,1.519,1111122 
TCOON,ioos:station:TCOON:518:1,2017-06-03T09:18:00Z,29.5150,-94.5133,1.542,1111122 
TCOON,ioos:station:TCOON:518:1,2017-06-03T10:18:00Z,29.5150,-94.5133,1.565,1111122 
TCOON,ioos:station:TCOON:518:1,2017-06-03T11:18:00Z,29.5150,-94.5133,1.56,1111122 
TCOON,ioos:station:TCOON:518:1,2017-06-03T12:18:00Z,29.5150,-94.5133,1.52,1111122 
TCOON,ioos:station:TCOON:518:1,2017-06-03T13:18:00Z,29.5150,-94.5133,1.498,1111122 
TCOON,ioos:station:TCOON:518:1,2017-06-03T14:18:00Z,29.5150,-94.5133,1.463,1111122 
TCOON,ioos:station:TCOON:518:1,2017-06-03T15:18:00Z,29.5150,-94.5133,1.446,1111122 
TCOON,ioos:station:TCOON:518:1,2017-06-03T16:18:00Z,29.5150,-94.5133,1.487,1111122 
TCOON,ioos:station:TCOON:518:1,2017-06-03T17:18:00Z,29.5150,-94.5133,1.505,1111122 
TCOON,ioos:station:TCOON:518:1,2017-06-03T18:18:00Z,29.5150,-94.5133,1.519,1111122 
TCOON,ioos:station:TCOON:518:1,2017-06-03T19:18:00Z,29.5150,-94.5133,1.546,1111122 
TCOON,ioos:station:TCOON:518:1,2017-06-03T20:18:00Z,29.5150,-94.5133,1.557,1111122 
TCOON,ioos:station:TCOON:518:1,2017-06-03T21:18:00Z,29.5150,-94.5133,1.504,1111122 
TCOON,ioos:station:TCOON:518:1,2017-06-03T22:18:00Z,29.5150,-94.5133,1.539,1111122 
TCOON,ioos:station:TCOON:518:1,2017-06-03T23:18:00Z,29.5150,-94.5133,1.516,1111122 
TCOON,ioos:station:TCOON:518:1,2017-06-04T00:18:00Z,29.5150,-94.5133,1.459,1111122 
TCOON,ioos:station:TCOON:518:1,2017-06-04T01:18:00Z,29.5150,-94.5133,1.399,1111122 
TCOON,ioos:station:TCOON:518:1,2017-06-04T02:18:00Z,29.5150,-94.5133,1.354,1111122 
TCOON,ioos:station:TCOON:518:1,2017-06-04T03:18:00Z,29.5150,-94.5133,1.334,1111122 
TCOON,ioos:station:TCOON:518:1,2017-06-04T04:18:00Z,29.5150,-94.5133,1.307,1111122 
TCOON,ioos:station:TCOON:518:1,2017-06-04T05:18:00Z,29.5150,-94.5133,1.293,1111122 
TCOON,ioos:station:TCOON:518:1,2017-06-04T06:18:00Z,29.5150,-94.5133,1.303,1111122 
TCOON,ioos:station:TCOON:518:1,2017-06-04T07:18:00Z,29.5150,-94.5133,1.388,1111122 
TCOON,ioos:station:TCOON:518:1,2017-06-04T08:18:00Z,29.5150,-94.5133,1.473,1111122 
TCOON,ioos:station:TCOON:518:1,2017-06-04T09:18:00Z,29.5150,-94.5133,1.541,1111122 
TCOON,ioos:station:TCOON:518:1,2017-06-04T10:18:00Z,29.5150,-94.5133,1.562,1111122 
TCOON,ioos:station:TCOON:518:1,2017-06-04T11:18:00Z,29.5150,-94.5133,1.547,1111122 
TCOON,ioos:station:TCOON:518:1,2017-06-04T12:18:00Z,29.5150,-94.5133,1.554,1111122 
TCOON,ioos:station:TCOON:518:1,2017-06-04T13:18:00Z,29.5150,-94.5133,1.638,1111122 
TCOON,ioos:station:TCOON:518:1,2017-06-04T14:18:00Z,29.5150,-94.5133,1.735,1111122 
TCOON,ioos:station:TCOON:518:1,2017-06-04T15:18:00Z,29.5150,-94.5133,1.927,1111122 
TCOON,ioos:station:TCOON:518:1,2017-06-04T16:18:00Z,29.5150,-94.5133,1.71,1111122 
TCOON,ioos:station:TCOON:518:1,2017-06-04T17:18:00Z,29.5150,-94.5133,1.613,1111122 
TCOON,ioos:station:TCOON:518:1,2017-06-04T18:18:00Z,29.5150,-94.5133,1.526,1111122 
TCOON,ioos:station:TCOON:518:1,2017-06-04T19:18:00Z,29.5150,-94.5133,1.506,1111122 
TCOON,ioos:station:TCOON:518:1,2017-06-04T20:18:00Z,29.5150,-94.5133,1.561,1111122 
TCOON,ioos:station:TCOON:518:1,2017-06-04T21:18:00Z,29.5150,-94.5133,1.617,1111122 
TCOON,ioos:station:TCOON:518:1,2017-06-04T22:18:00Z,29.5150,-94.5133,1.625,1111122 
TCOON,ioos:station:TCOON:518:1,2017-06-04T23:18:00Z,29.5150,-94.5133,1.549,1111122 
TCOON,ioos:station:TCOON:518:1,2017-06-05T00:18:00Z,29.5150,-94.5133,1.535,1111122 
TCOON,ioos:station:TCOON:518:1,2017-06-05T01:18:00Z,29.5150,-94.5133,1.426,1111122 
TCOON,ioos:station:TCOON:518:1,2017-06-05T02:18:00Z,29.5150,-94.5133,1.328,1111122 
TCOON,ioos:station:TCOON:518:1,2017-06-05T03:18:00Z,29.5150,-94.5133,1.355,1111122 
TCOON,ioos:station:TCOON:518:1,2017-06-05T04:18:00Z,29.5150,-94.5133,1.344,1111122 
TCOON,ioos:station:TCOON:518:1,2017-06-05T05:18:00Z,29.5150,-94.5133,1.303,1111122 
TCOON,ioos:station:TCOON:518:1,2017-06-05T06:18:00Z,29.5150,-94.5133,1.354,1111122 
TCOON,ioos:station:TCOON:518:1,2017-06-05T07:18:00Z,29.5150,-94.5133,1.528,1111122 
TCOON,ioos:station:TCOON:518:1,2017-06-05T08:18:00Z,29.5150,-94.5133,1.674,1111122 
TCOON,ioos:station:TCOON:518:1,2017-06-05T09:18:00Z,29.5150,-94.5133,1.715,1111122 
TCOON,ioos:station:TCOON:518:1,2017-06-05T10:18:00Z,29.5150,-94.5133,1.715,1111122 
TCOON,ioos:station:TCOON:518:1,2017-06-05T11:18:00Z,29.5150,-94.5133,1.715,1111122 
TCOON,ioos:station:TCOON:518:1,2017-06-05T12:18:00Z,29.5150,-94.5133,1.844,1111122 
TCOON,ioos:station:TCOON:518:1,2017-06-05T13:18:00Z,29.5150,-94.5133,1.817,1111122 
TCOON,ioos:station:TCOON:518:1,2017-06-05T14:18:00Z,29.5150,-94.5133,1.647,1111122 
TCOON,ioos:station:TCOON:518:1,2017-06-05T15:18:00Z,29.5150,-94.5133,1.648,1111122 
TCOON,ioos:station:TCOON:518:1,2017-06-05T16:18:00Z,29.5150,-94.5133,1.629,1111122 
TCOON,ioos:station:TCOON:518:1,2017-06-05T17:18:00Z,29.5150,-94.5133,1.6,1111122 
TCOON,ioos:station:TCOON:518:1,2017-06-05T18:18:00Z,29.5150,-94.5133,1.593,1111122 
TCOON,ioos:station:TCOON:518:1,2017-06-05T19:18:00Z,29.5150,-94.5133,1.537,1111122 
TCOON,ioos:station:TCOON:518:1,2017-06-05T20:18:00Z,29.5150,-94.5133,1.506,1111122 
TCOON,ioos:station:TCOON:518:1,2017-06-05T21:18:00Z,29.5150,-94.5133,1.524,1111122 
TCOON,ioos:station:TCOON:518:1,2017-06-05T22:18:00Z,29.5150,-94.5133,1.517,1111122 
TCOON,ioos:station:TCOON:518:1,2017-06-05T23:18:00Z,29.5150,-94.5133,1.426,1111122 
TCOON,ioos:station:TCOON:518:1,2017-06-06T00:18:00Z,29.5150,-94.5133,1.333,1111122 
TCOON,ioos:station:TCOON:518:1,2017-06-06T01:18:00Z,29.5150,-94.5133,1.302,1111122 
TCOON,ioos:station:TCOON:518:1,2017-06-06T02:18:00Z,29.5150,-94.5133,1.293,1111122 
TCOON,ioos:station:TCOON:518:1,2017-06-06T03:18:00Z,29.5150,-94.5133,1.261,1111122 
TCOON,ioos:station:TCOON:518:1,2017-06-06T04:18:00Z,29.5150,-94.5133,1.26,1111122 
TCOON,ioos:station:TCOON:518:1,2017-06-06T05:18:00Z,29.5150,-94.5133,1.311,1111122 
TCOON,ioos:station:TCOON:518:1,2017-06-06T06:18:00Z,29.5150,-94.5133,1.334,1111122 
TCOON,ioos:station:TCOON:518:1,2017-06-06T07:18:00Z,29.5150,-94.5133,1.351,1111122 
TCOON,ioos:station:TCOON:518:1,2017-06-06T08:18:00Z,29.5150,-94.5133,1.417,1111122 
TCOON,ioos:station:TCOON:518:1,2017-06-06T09:18:00Z,29.5150,-94.5133,1.532,1111122 
TCOON,ioos:station:TCOON:518:1,2017-06-06T10:18:00Z,29.5150,-94.5133,1.555,1111122 
TCOON,ioos:station:TCOON:518:1,2017-06-06T11:18:00Z,29.5150,-94.5133,1.572,1111122 
TCOON,ioos:station:TCOON:518:1,2017-06-06T12:18:00Z,29.5150,-94.5133,1.604,1111122 
TCOON,ioos:station:TCOON:518:1,2017-06-06T13:18:00Z,29.5150,-94.5133,1.659,1111122 
TCOON,ioos:station:TCOON:518:1,2017-06-06T14:18:00Z,29.5150,-94.5133,1.662,1111122 
TCOON,ioos:station:TCOON:518:1,2017-06-06T15:18:00Z,29.5150,-94.5133,1.64,1111122 
TCOON,ioos:station:TCOON:518:1,2017-06-06T16:18:00Z,29.5150,-94.5133,1.602,1111122 
TCOON,ioos:station:TCOON:518:1,2017-06-06T17:18:00Z,29.5150,-94.5133,1.592,1111122 
TCOON,ioos:station:TCOON:518:1,2017-06-06T18:18:00Z,29.5150,-94.5133,1.594,1111122 
TCOON,ioos:station:TCOON:518:1,2017-06-06T19:18:00Z,29.5150,-94.5133,1.551,1111122 
TCOON,ioos:station:TCOON:518:1,2017-06-06T20:18:00Z,29.5150,-94.5133,1.521,1111122 
TCOON,ioos:station:TCOON:518:1,2017-06-06T21:18:00Z,29.5150,-94.5133,1.527,1111122 
TCOON,ioos:station:TCOON:518:1,2017-06-06T22:18:00Z,29.5150,-94.5133,1.519,1111122 
TCOON,ioos:station:TCOON:518:1,2017-06-06T23:18:00Z,29.5150,-94.5133,1.444,1111122 
TCOON,ioos:station:TCOON:518:1,2017-06-07T00:18:00Z,29.5150,-94.5133,1.36,1111122 
TCOON,ioos:station:TCOON:518:1,2017-06-07T01:18:00Z,29.5150,-94.5133,1.301,1111122 
TCOON,ioos:station:TCOON:518:1,2017-06-07T02:18:00Z,29.5150,-94.5133,1.267,1111122 
TCOON,ioos:station:TCOON:518:1,2017-06-07T03:18:00Z,29.5150,-94.5133,1.239,1111122 
TCOON,ioos:station:TCOON:518:1,2017-06-07T04:18:00Z,29.5150,-94.5133,1.153,1111122 
TCOON,ioos:station:TCOON:518:1,2017-06-07T05:18:00Z,29.5150,-94.5133,1.13,1111122 
TCOON,ioos:station:TCOON:518:1,2017-06-07T06:18:00Z,29.5150,-94.5133,1.093,1111122 
TCOON,ioos:station:TCOON:518:1,2017-06-07T07:18:00Z,29.5150,-94.5133,1.109,1111122 
TCOON,ioos:station:TCOON:518:1,2017-06-07T08:18:00Z,29.5150,-94.5133,1.14,1111122 
TCOON,ioos:station:TCOON:518:1,2017-06-07T09:18:00Z,29.5150,-94.5133,1.239,1111122 
TCOON,ioos:station:TCOON:518:1,2017-06-07T10:18:00Z,29.5150,-94.5133,1.346,1111122 
TCOON,ioos:station:TCOON:518:1,2017-06-07T11:18:00Z,29.5150,-94.5133,1.422,1111122 
TCOON,ioos:station:TCOON:518:1,2017-06-07T12:18:00Z,29.5150,-94.5133,1.48,1111122 
TCOON,ioos:station:TCOON:518:1,2017-06-07T13:18:00Z,29.5150,-94.5133,1.497,1111122 
TCOON,ioos:station:TCOON:518:1,2017-06-07T14:18:00Z,29.5150,-94.5133,1.477,1111122 
TCOON,ioos:station:TCOON:518:1,2017-06-07T15:18:00Z,29.5150,-94.5133,1.456,1111122 
TCOON,ioos:station:TCOON:518:1,2017-06-07T16:18:00Z,29.5150,-94.5133,1.466,1111122 
TCOON,ioos:station:TCOON:518:1,2017-06-07T17:18:00Z,29.5150,-94.5133,1.467,1111122 
TCOON,ioos:station:TCOON:518:1,2017-06-07T18:18:00Z,29.5150,-94.5133,1.519,1111122 
TCOON,ioos:station:TCOON:518:1,2017-06-07T19:18:00Z,29.5150,-94.5133,1.509,1111122 
TCOON,ioos:station:TCOON:518:1,2017-06-07T20:18:00Z,29.5150,-94.5133,1.546,1111122 
TCOON,ioos:station:TCOON:518:1,2017-06-07T21:18:00Z,29.5150,-94.5133,1.586,1111122 
TCOON,ioos:station:TCOON:518:1,2017-06-07T22:18:00Z,29.5150,-94.5133,1.538,1111122 
TCOON,ioos:station:TCOON:518:1,2017-06-07T23:18:00Z,29.5150,-94.5133,1.504,1111122 
TCOON,ioos:station:TCOON:518:1,2017-06-08T00:18:00Z,29.5150,-94.5133,1.45,1111122 
TCOON,ioos:station:TCOON:518:1,2017-06-08T01:18:00Z,29.5150,-94.5133,1.37,1111122 
TCOON,ioos:station:TCOON:518:1,2017-06-08T02:18:00Z,29.5150,-94.5133,1.352,1111122 
TCOON,ioos:station:TCOON:518:1,2017-06-08T03:18:00Z,29.5150,-94.5133,1.263,1111122 
TCOON,ioos:station:TCOON:518:1,2017-06-08T04:18:00Z,29.5150,-94.5133,1.247,1111122 
TCOON,ioos:station:TCOON:518:1,2017-06-08T05:18:00Z,29.5150,-94.5133,1.189,1111122 
TCOON,ioos:station:TCOON:518:1,2017-06-08T06:18:00Z,29.5150,-94.5133,1.147,1111122 
TCOON,ioos:station:TCOON:518:1,2017-06-08T07:18:00Z,29.5150,-94.5133,1.129,1111122 
TCOON,ioos:station:TCOON:518:1,2017-06-08T08:18:00Z,29.5150,-94.5133,1.123,1111122 
TCOON,ioos:station:TCOON:518:1,2017-06-08T09:18:00Z,29.5150,-94.5133,1.259,1111122 
TCOON,ioos:station:TCOON:518:1,2017-06-08T10:18:00Z,29.5150,-94.5133,1.376,1111122 
TCOON,ioos:station:TCOON:518:1,2017-06-08T11:18:00Z,29.5150,-94.5133,1.468,1111122 
TCOON,ioos:station:TCOON:518:1,2017-06-08T12:18:00Z,29.5150,-94.5133,1.515,1111122 
TCOON,ioos:station:TCOON:518:1,2017-06-08T13:18:00Z,29.5150,-94.5133,1.533,1111122 
TCOON,ioos:station:TCOON:518:1,2017-06-08T14:18:00Z,29.5150,-94.5133,1.567,1111122 
TCOON,ioos:station:TCOON:518:1,2017-06-08T15:18:00Z,29.5150,-94.5133,1.609,1111122 
TCOON,ioos:station:TCOON:518:1,2017-06-08T16:18:00Z,29.5150,-94.5133,1.657,1111122 
TCOON,ioos:station:TCOON:518:1,2017-06-08T17:18:00Z,29.5150,-94.5133,1.682,1111122 
TCOON,ioos:station:TCOON:518:1,2017-06-08T18:18:00Z,29.5150,-94.5133,1.691,1111122 
TCOON,ioos:station:TCOON:518:1,2017-06-08T19:18:00Z,29.5150,-94.5133,1.673,1111122 
TCOON,ioos:station:TCOON:518:1,2017-06-08T20:18:00Z,29.5150,-94.5133,1.651,1111122 
TCOON,ioos:station:TCOON:518:1,2017-06-08T21:18:00Z,29.5150,-94.5133,1.603,1111122 
TCOON,ioos:station:TCOON:518:1,2017-06-08T22:18:00Z,29.5150,-94.5133,1.592,1111122 
TCOON,ioos:station:TCOON:518:1,2017-06-08T23:18:00Z,29.5150,-94.5133,1.558,1111122 
TCOON,ioos:station:TCOON:518:1,2017-06-09T00:18:00Z,29.5150,-94.5133,1.518,1111122 
TCOON,ioos:station:TCOON:518:1,2017-06-09T01:18:00Z,29.5150,-94.5133,1.45,1111122 
TCOON,ioos:station:TCOON:518:1,2017-06-09T02:18:00Z,29.5150,-94.5133,1.394,1111122 
TCOON,ioos:station:TCOON:518:1,2017-06-09T03:18:00Z,29.5150,-94.5133,1.338,1111122 
TCOON,ioos:station:TCOON:518:1,2017-06-09T04:18:00Z,29.5150,-94.5133,1.254,1111122 
TCOON,ioos:station:TCOON:518:1,2017-06-09T05:18:00Z,29.5150,-94.5133,1.234,1111122 
TCOON,ioos:station:TCOON:518:1,2017-06-09T06:18:00Z,29.5150,-94.5133,1.211,1111122 
TCOON,ioos:station:TCOON:518:1,2017-06-09T07:18:00Z,29.5150,-94.5133,1.22,1111122 
TCOON,ioos:station:TCOON:518:1,2017-06-09T08:18:00Z,29.5150,-94.5133,1.255,1111122 
TCOON,ioos:station:TCOON:518:1,2017-06-09T09:18:00Z,29.5150,-94.5133,1.32,1111122 
TCOON,ioos:station:TCOON:518:1,2017-06-09T10:18:00Z,29.5150,-94.5133,1.388,1111122 
TCOON,ioos:station:TCOON:518:1,2017-06-09T11:18:00Z,29.5150,-94.5133,1.496,1111122 
TCOON,ioos:station:TCOON:518:1,2017-06-09T12:18:00Z,29.5150,-94.5133,1.555,1111122 
TCOON,ioos:station:TCOON:518:1,2017-06-09T13:18:00Z,29.5150,-94.5133,1.613,1111122 
TCOON,ioos:station:TCOON:518:1,2017-06-09T14:18:00Z,29.5150,-94.5133,1.651,1111122 
TCOON,ioos:station:TCOON:518:1,2017-06-09T15:18:00Z,29.5150,-94.5133,1.661,1111122 
TCOON,ioos:station:TCOON:518:1,2017-06-09T16:18:00Z,29.5150,-94.5133,1.659,1111122 
TCOON,ioos:station:TCOON:518:1,2017-06-09T17:18:00Z,29.5150,-94.5133,1.656,1111122 
TCOON,ioos:station:TCOON:518:1,2017-06-09T18:18:00Z,29.5150,-94.5133,1.681,1111122 
TCOON,ioos:station:TCOON:518:1,2017-06-09T19:18:00Z,29.5150,-94.5133,1.703,1111122 
TCOON,ioos:station:TCOON:518:1,2017-06-09T20:18:00Z,29.5150,-94.5133,1.69,1111122 
TCOON,ioos:station:TCOON:518:1,2017-06-09T21:18:00Z,29.5150,-94.5133,1.658,1111122 
TCOON,ioos:station:TCOON:518:1,2017-06-09T22:18:00Z,29.5150,-94.5133,1.624,1111122 
TCOON,ioos:station:TCOON:518:1,2017-06-09T23:18:00Z,29.5150,-94.5133,1.596,1111122 
TCOON,ioos:station:TCOON:518:1,2017-06-10T00:18:00Z,29.5150,-94.5133,1.524,1111122 
TCOON,ioos:station:TCOON:518:1,2017-06-10T01:18:00Z,29.5150,-94.5133,1.481,1111122 
TCOON,ioos:station:TCOON:518:1,2017-06-10T02:18:00Z,29.5150,-94.5133,1.445,1111122 
TCOON,ioos:station:TCOON:518:1,2017-06-10T03:18:00Z,29.5150,-94.5133,1.413,1111122 
TCOON,ioos:station:TCOON:518:1,2017-06-10T04:18:00Z,29.5150,-94.5133,1.339,1111122 
TCOON,ioos:station:TCOON:518:1,2017-06-10T05:18:00Z,29.5150,-94.5133,1.307,1111122 
TCOON,ioos:station:TCOON:518:1,2017-06-10T06:18:00Z,29.5150,-94.5133,1.271,1111122 
TCOON,ioos:station:TCOON:518:1,2017-06-10T07:18:00Z,29.5150,-94.5133,1.23,1111122 
TCOON,ioos:station:TCOON:518:1,2017-06-10T08:18:00Z,29.5150,-94.5133,1.252,1111122 
TCOON,ioos:station:TCOON:518:1,2017-06-10T09:18:00Z,29.5150,-94.5133,1.312,1111122 
TCOON,ioos:station:TCOON:518:1,2017-06-10T10:18:00Z,29.5150,-94.5133,1.377,1111122 
TCOON,ioos:station:TCOON:518:1,2017-06-10T11:18:00Z,29.5150,-94.5133,1.475,1111122 
TCOON,ioos:station:TCOON:518:1,2017-06-10T12:18:00Z,29.5150,-94.5133,1.557,1111122 
TCOON,ioos:station:TCOON:518:1,2017-06-10T22:18:00Z,29.5150,-94.5133,1.64,1111122 
TCOON,ioos:station:TCOON:518:1,2017-06-10T23:18:00Z,29.5150,-94.5133,1.597,1111122 
TCOON,ioos:station:TCOON:518:1,2017-06-11T00:18:00Z,29.5150,-94.5133,1.579,1111122 
TCOON,ioos:station:TCOON:518:1,2017-06-11T01:18:00Z,29.5150,-94.5133,1.536,1111122 
TCOON,ioos:station:TCOON:518:1,2017-06-11T02:18:00Z,29.5150,-94.5133,1.472,1111122 
TCOON,ioos:station:TCOON:518:1,2017-06-11T03:18:00Z,29.5150,-94.5133,1.414,1111122 
TCOON,ioos:station:TCOON:518:1,2017-06-11T04:18:00Z,29.5150,-94.5133,1.352,1111122 
TCOON,ioos:station:TCOON:518:1,2017-06-11T05:18:00Z,29.5150,-94.5133,1.304,1111122 
TCOON,ioos:station:TCOON:518:1,2017-06-11T06:18:00Z,29.5150,-94.5133,1.242,1111122 
TCOON,ioos:station:TCOON:518:1,2017-06-11T07:18:00Z,29.5150,-94.5133,1.287,1111122 
TCOON,ioos:station:TCOON:518:1,2017-06-11T08:18:00Z,29.5150,-94.5133,1.304,1111122 
TCOON,ioos:station:TCOON:518:1,2017-06-11T09:18:00Z,29.5150,-94.5133,1.329,1111122 
TCOON,ioos:station:TCOON:518:1,2017-06-11T10:18:00Z,29.5150,-94.5133,1.389,1111122 
TCOON,ioos:station:TCOON:518:1,2017-06-11T11:18:00Z,29.5150,-94.5133,1.465,1111122 
TCOON,ioos:station:TCOON:518:1,2017-06-11T12:18:00Z,29.5150,-94.5133,1.54,1111122 
TCOON,ioos:station:TCOON:518:1,2017-06-11T13:18:00Z,29.5150,-94.5133,1.605,1111122 
TCOON,ioos:station:TCOON:518:1,2017-06-11T14:18:00Z,29.5150,-94.5133,1.655,1111122 
TCOON,ioos:station:TCOON:518:1,2017-06-11T15:18:00Z,29.5150,-94.5133,1.673,1111122 
TCOON,ioos:station:TCOON:518:1,2017-06-11T16:18:00Z,29.5150,-94.5133,1.693,1111122 
TCOON,ioos:station:TCOON:518:1,2017-06-11T17:18:00Z,29.5150,-94.5133,1.703,1111122 
TCOON,ioos:station:TCOON:518:1,2017-06-11T18:12:00Z,29.5150,-94.5133,1.703,1111122 
TCOON,ioos:station:TCOON:518:1,2017-06-11T19:18:00Z,29.5150,-94.5133,1.71,1111122 
TCOON,ioos:station:TCOON:518:1,2017-06-11T20:18:00Z,29.5150,-94.5133,1.7,1111122 
TCOON,ioos:station:TCOON:518:1,2017-06-11T21:18:00Z,29.5150,-94.5133,1.694,1111122 
TCOON,ioos:station:TCOON:518:1,2017-06-11T22:18:00Z,29.5150,-94.5133,1.685,1111122 
TCOON,ioos:station:TCOON:518:1,2017-06-11T23:18:00Z,29.5150,-94.5133,1.652,1111122 
TCOON,ioos:station:TCOON:518:1,2017-06-12T00:18:00Z,29.5150,-94.5133,1.632,1111122 
TCOON,ioos:station:TCOON:518:1,2017-06-12T01:18:00Z,29.5150,-94.5133,1.596,1111122 
TCOON,ioos:station:TCOON:518:1,2017-06-12T02:18:00Z,29.5150,-94.5133,1.567,1111122 
TCOON,ioos:station:TCOON:518:1,2017-06-12T03:18:00Z,29.5150,-94.5133,1.506,1111122 
TCOON,ioos:station:TCOON:518:1,2017-06-12T04:18:00Z,29.5150,-94.5133,1.459,1111122 
TCOON,ioos:station:TCOON:518:1,2017-06-12T05:18:00Z,29.5150,-94.5133,1.409,1111122 
TCOON,ioos:station:TCOON:518:1,2017-06-12T06:18:00Z,29.5150,-94.5133,1.364,1111122 
TCOON,ioos:station:TCOON:518:1,2017-06-12T07:18:00Z,29.5150,-94.5133,1.338,1111122 
TCOON,ioos:station:TCOON:518:1,2017-06-12T08:18:00Z,29.5150,-94.5133,1.32,1111122 
TCOON,ioos:station:TCOON:518:1,2017-06-12T09:18:00Z,29.5150,-94.5133,1.317,1111122 
TCOON,ioos:station:TCOON:518:1,2017-06-12T10:18:00Z,29.5150,-94.5133,1.338,1111122 
TCOON,ioos:station:TCOON:518:1,2017-06-12T11:18:00Z,29.5150,-94.5133,1.394,1111122 
TCOON,ioos:station:TCOON:518:1,2017-06-12T12:18:00Z,29.5150,-94.5133,1.538,1111122 
TCOON,ioos:station:TCOON:518:1,2017-06-12T13:18:00Z,29.5150,-94.5133,1.607,1111122 
TCOON,ioos:station:TCOON:518:1,2017-06-12T14:18:00Z,29.5150,-94.5133,1.685,1111122 
TCOON,ioos:station:TCOON:518:1,2017-06-12T15:18:00Z,29.5150,-94.5133,1.697,1111122 
TCOON,ioos:station:TCOON:518:1,2017-06-12T16:18:00Z,29.5150,-94.5133,1.728,1111122 
TCOON,ioos:station:TCOON:518:1,2017-06-12T17:18:00Z,29.5150,-94.5133,1.758,1111122 
TCOON,ioos:station:TCOON:518:1,2017-06-12T18:18:00Z,29.5150,-94.5133,1.78,1111122 
TCOON,ioos:station:TCOON:518:1,2017-06-13T15:18:00Z,29.5150,-94.5133,1.668,1111122 
TCOON,ioos:station:TCOON:518:1,2017-06-13T16:18:00Z,29.5150,-94.5133,1.674,1111122 
TCOON,ioos:station:TCOON:518:1,2017-06-13T17:18:00Z,29.5150,-94.5133,1.693,1111122 
TCOON,ioos:station:TCOON:518:1,2017-06-13T18:18:00Z,29.5150,-94.5133,1.676,1111122 
TCOON,ioos:station:TCOON:518:1,2017-06-13T19:18:00Z,29.5150,-94.5133,1.687,1111122 
TCOON,ioos:station:TCOON:518:1,2017-06-13T20:18:00Z,29.5150,-94.5133,1.676,1111122 
TCOON,ioos:station:TCOON:518:1,2017-06-13T21:18:00Z,29.5150,-94.5133,1.711,1111122 
TCOON,ioos:station:TCOON:518:1,2017-06-13T22:18:00Z,29.5150,-94.5133,1.731,1111122 
TCOON,ioos:station:TCOON:518:1,2017-06-13T23:18:00Z,29.5150,-94.5133,1.707,1111122 
TCOON,ioos:station:TCOON:518:1,2017-06-14T00:18:00Z,29.5150,-94.5133,1.689,1111122 
TCOON,ioos:station:TCOON:518:1,2017-06-14T01:18:00Z,29.5150,-94.5133,1.648,1111122 